SCP
0 0 0 0 0 0 0 0 0 0 0 0 0 0 0 0 0 0 0 0 0 0 0 0 0 0 0 0 0 0 0 0 0 0 0 0 0 0 0 0 0 0 0
0 0 0 0 0 0 0 0 0 0 0 0 0 0 0 0 0 0 0 0 0 0 0 0 0 0 0 0 0 0 0 0 0 0 0 0 0 0 0 0 0 0 0
0 0 0 0 0 0 0 0 0 0 0 0 0 0 0 0 0 0 0 0 0 0 0 0 0 0 0 0 0 0 0 0 0 0 0 0 0 0 0 0 0 0 0
0 0 0 0 0 0 0 0 0 0 0 0 0 0 0 0 0 0 0 0 0 0 0 0 0 0 0 0 0 0 0 0 0 0 0 0 0 0 0 0 0 0 0
0 0 0 0 0 0 0 0 0 0 0 0 0 0 0 0 0 0 0 0 0 0 0 0 0 0 0 0 0 0 0 0 0 0 0 0 0 0 0 0 0 0 0
0 0 0 0 0 0 0 0 0 0 0 0 0 0 0 0 0 0 0 0 0 0 0 0 0 0 0 0 0 0 0 0 0 0 0 0 0 0 0 0 0 0 0
0 0 0 0 0 0 0 0 0 0 0 0 0 0 0 0 0 0 0 0 0 0 0 0 0 0 0 0 0 0 0 0 0 0 0 0 0 0 0 0 0 0 0
0 0 0 0 0 0 0 0 0 0 0 0 0 0 0 0 0 0 0 0 0 0 0 0 0 0 0 0 0 0 0 0 0 0 0 0 0 0 0 0 0 0 0
0 0 0 0 0 0 0 0 0 0 0 0 0 0 0 0 0 0 0 0 0 0 0 0 0 0 0 0 0 0 0 0 0 0 0 0 0 0 0 0 0 0 0
0 0 0 0 0 0 0 0 0 0 0 0 0 0 0 0 0 0 0 0 0 0 0 0 0 0 0 0 0 0 0 0 0 0 0 0 0 0 0 0 0 0 0
0 0 0 0 0 0 0 0 0 0 0 0 0 0 0 0 0 0 0 0 0 0 0 0 0 0 0 0 0 0 0 0 0 0 0 0 0 0 0 0 0 0 0
0 0 0 0 0 0 0 0 0 0 0 0 0 0 0 0 0 0 0 0 0 0 0 0 0 0 0 0 0 0 0 0 0 0 0 0 0 0 0 0 0 0 0
0 0 0 0 0 0 0 0 0 0 0 0 0 0 0 0 0 0 0 0 0 0 0 0 0 0 0 0 0 0 0 0 0 0 0 0 0 0 0 0 0 0 0
0 0 0 0 0 0 0 0 0 0 0 0 0 0 0 0 0 0 0 0 0 0 0 0 0 0 0 0 0 0 0 0 0 0 0 0 0 0 0 0 0 0 0
0 0 0 0 0 0 0 0 0 0 0 0 0 0 0 0 0 0 0 0 0 0 0 0 0 0 0 0 0 0 0 0 0 0 0 0 0 0 0 0 0 0 0
0 0 0 0 0 0 0 0 0 0 0 0 0 0 0 0 0 0 0 0 0 0 0 0 0 0 0 0 0 0 0 0 0 0 0 0 0 0 0 0 0 0 0
0 0 0 0 0 0 0 0 0 0 0 0 0 0 0 0 0 0 0 0 0 0 0 0 0 0 0 0 0 0 0 0 0 0 0 0 0 0 0 0 0 0 0
0 0 0 0 0 0 0 0 0 0 0 0 0 0 0 0 0 0 0 0 0 0 0 0 0 0 0 0 0 0 0 0 0 0 0 0 0 0 0 0 0 0 0
0 0 0 0 0 0 0 0 0 0 0 0 0 0 0 0 0 0 0 0 0 0 0 0 0 0 0 0 0 0 0 0 0 0 0 0 0 0 0 0 0 0 0
0 0 0 0 0 0 0 0 0 0 0 0 0 0 0 0 0 0 0 0 0 0 0 0 0 0 0 0 0 0 0 0 0 0 0 0 0 0 0 0 0 0 0
0 0 0 0 0 0 0 0 0 0 0 0 0 0 0 0 0 0 0 0 0 0 0 0 0 0 0 0 0 0 0 0 0 0 0 0 0 0 0 0 0 0 0
0 0 0 0 0 0 0 0 0 0 0 0 0 0 0 0 0 0 0 0 0 0 0 0 0 0 0 0 0 0 0 0 0 0 0 0 0 0 0 0 0 0 0
0 0 0 0 0 0 0 0 0 0 0 0 0 0 0 0 0 0 0 0 0 0 0 0 0 0 0 0 0 0 0 0 0 0 0 0 0 0 0 0 0 0 0
0 0 0 0 0 0 0 0 0 0 0 0 0 0 0 0 0 0 0 0 0 0 0 0 0 0 0 0 0 0 0 0 0 0 0 0 0 0 0 0 0 0 0
0 0 0 0 0 0 0 0 0 0 0 0 0 0 0 0 0 0 0 0 0 0 0 0 0 0 0 0 0 0 0 0 0 0 0 0 0 0 0 0 0 0 0
0 0 0 0 0 0 0 0 0 0 0 0 0 0 0 0 0 0 0 0 0 0 0 0 0 0 0 0 0 0 0 0 0 0 0 0 0 0 0 0 0 0 0
Wind_Speed
1 1 3 3 5 6 7 7 7 7 7 7 7 7 7 7 7 8 8 8 8 9 9 10 10 10 11 11 12 12 12 12 12 11 11 10 10 10 10 9 7 9 11
1 1 2 4 5 7 8 8 7 6 6 7 7 7 7 7 7 7 7 8 8 8 9 9 10 10 10 10 11 11 11 11 11 9 7 7 8 9 9 9 8 8 10
3 2 3 5 6 7 7 8 8 7 6 7 7 7 7 7 7 7 7 7 8 8 9 9 10 10 10 10 10 10 10 10 9 6 3 6 8 8 9 9 9 9 10
3 3 3 6 6 6 7 7 8 7 7 6 7 7 7 7 7 7 7 7 8 8 8 8 9 9 9 9 9 9 8 8 7 3 3 5 6 8 7 8 8 9 9
4 4 5 7 7 7 7 7 7 7 8 7 7 7 7 6 7 7 7 8 8 8 8 8 8 8 8 8 8 8 7 6 4 3 5 5 5 7 7 7 7 8 8
5 5 6 8 8 8 8 8 8 8 8 7 7 7 7 7 7 8 8 8 8 8 8 8 7 7 7 7 7 7 6 4 1 3 4 4 4 6 6 7 7 7 7
5 5 5 7 8 9 9 8 8 8 8 7 7 7 7 7 8 8 8 7 7 7 7 7 7 7 6 6 6 6 5 4 2 3 3 4 4 6 6 6 7 7 7
5 5 5 7 8 8 9 9 8 8 8 7 7 8 8 8 8 8 7 7 6 6 6 6 6 6 6 6 6 5 5 3 2 3 3 4 5 5 5 5 6 6 6
5 5 5 4 5 7 9 9 9 9 8 8 8 8 8 9 9 8 7 6 6 6 6 6 6 5 5 6 6 6 5 4 1 2 2 3 4 4 4 4 5 5 5
5 4 4 4 4 4 5 8 9 9 8 8 9 9 8 8 8 8 7 7 6 6 5 5 5 6 5 5 5 5 3 1 2 2 2 3 4 3 3 3 3 4 4
4 4 4 4 4 4 4 5 6 7 8 7 7 8 5 4 4 4 7 8 7 6 6 5 5 5 5 5 5 4 1 0 2 1 2 4 3 2 3 2 2 3 3
3 3 3 3 3 3 3 3 3 3 4 4 4 4 3 3 3 4 6 8 7 6 5 5 4 3 2 2 2 1 0 1 1 1 3 4 3 2 2 2 2 2 2
2 2 3 3 3 3 2 2 2 2 2 3 4 4 3 2 2 2 2 3 3 3 2 2 1 1 1 2 1 1 1 1 1 1 2 4 4 2 1 1 1 1 1
2 2 2 3 2 2 2 2 2 2 2 3 3 4 2 2 2 2 2 2 2 2 2 1 1 1 1 1 1 1 1 1 1 1 2 4 4 3 2 1 0 1 1
2 2 3 3 2 2 2 2 2 2 2 3 3 3 3 2 2 2 2 2 2 2 2 2 1 1 1 2 2 2 1 2 1 1 1 4 4 3 2 1 1 1 1
1 1 2 2 2 2 2 2 2 2 2 2 2 3 4 3 2 2 2 2 2 2 2 2 2 1 1 1 2 2 2 1 1 1 1 2 4 4 3 3 2 2 2
1 1 2 2 2 2 2 1 1 2 2 2 2 3 4 4 3 2 1 2 2 2 2 2 1 1 1 1 1 1 1 1 2 1 1 1 1 3 4 3 3 3 2
1 1 2 2 2 2 2 1 1 1 2 2 2 2 4 4 3 2 2 2 2 2 2 1 1 1 1 1 1 1 1 1 2 1 1 1 1 2 2 4 4 4 3
1 1 2 2 2 2 2 2 2 2 2 2 2 2 3 3 3 3 2 2 2 1 1 2 1 1 1 1 1 1 1 1 1 1 1 1 2 2 2 2 3 4 4
1 2 2 2 3 2 1 1 1 2 2 2 2 3 4 3 4 3 2 2 2 1 1 2 1 1 1 1 2 1 1 1 1 1 1 1 1 2 2 2 2 1 3
2 2 3 3 3 2 1 1 1 1 1 2 2 3 4 4 4 3 2 2 2 1 2 2 2 1 1 1 1 1 1 1 1 1 1 1 1 1 2 2 2 2 1
1 1 2 2 2 2 1 1 1 1 1 1 2 3 4 4 4 3 3 2 2 2 2 2 2 1 0 1 1 2 2 2 1 1 1 1 1 1 1 2 2 2 2
1 1 1 1 1 2 1 1 1 1 1 1 2 2 3 4 4 4 3 3 2 2 2 2 2 2 1 1 1 2 2 2 1 1 1 1 1 1 1 1 2 2 2
0 1 1 1 2 2 1 1 1 0 1 2 2 2 3 3 4 4 4 3 3 2 3 2 2 3 2 2 1 2 2 2 2 2 1 1 1 2 2 2 2 2 2
1 1 1 2 2 2 2 1 0 1 1 1 2 2 3 3 3 4 4 4 3 3 3 3 3 3 2 2 2 1 2 2 3 3 3 2 1 1 2 2 2 2 2
1 1 1 1 2 2 2 2 1 1 1 2 2 3 3 2 2 4 4 4 3 3 3 3 3 4 3 3 2 2 2 2 2 3 4 3 3 2 2 2 2 2 2
Wind_Direction
100 53 16 38 60 72 78 82 83 82 80 81 82 84 83 82 80 78 75 72 70 69 69 70 71 71 72 72 72 71 73 70 70 69 66 66 70 75 76 74 79 84 80
97 93 43 46 69 75 75 73 74 75 76 77 78 79 81 84 84 81 78 76 73 72 71 69 70 70 70 71 71 70 69 69 69 66 67 76 71 73 76 69 59 78 83
92 86 76 60 70 78 79 74 70 69 74 76 75 75 76 79 80 82 81 79 76 74 73 71 71 70 69 72 72 70 67 66 62 55 72 93 87 79 79 82 80 83 86
91 80 68 55 70 81 81 77 71 66 67 73 72 70 71 74 75 75 74 75 75 74 72 71 70 71 70 71 74 72 68 63 51 23 74 79 85 82 82 87 87 86 87
87 72 67 53 64 74 77 76 71 65 63 68 66 64 65 68 72 74 71 70 69 67 68 72 71 70 69 68 73 73 69 61 43 48 67 72 76 81 82 86 90 90 88
84 71 67 51 58 64 69 70 69 64 60 62 60 60 61 63 66 70 68 68 67 66 64 68 71 70 69 67 68 69 63 44 58 76 72 75 79 80 83 87 92 93 92
86 74 71 54 52 58 61 63 66 63 60 60 58 55 56 59 59 62 65 67 66 67 66 65 69 69 67 65 64 65 53 8 53 75 69 73 75 76 81 89 92 96 97
89 76 68 56 48 53 56 54 55 58 58 57 56 55 55 53 55 56 59 64 67 66 64 62 64 67 65 61 57 55 42 1 61 74 74 73 65 75 80 87 92 96 97
88 80 71 65 55 49 49 49 47 45 50 53 54 55 54 52 51 48 48 54 63 65 63 59 60 60 63 61 54 46 38 356 48 71 73 72 61 70 76 81 88 94 99
81 73 67 64 61 60 55 47 45 43 44 51 56 55 53 53 51 46 43 43 47 56 60 59 61 58 57 57 54 41 28 301 74 76 73 65 51 70 77 84 92 95 95
65 58 59 61 57 55 58 50 47 46 44 49 56 51 49 56 54 48 41 35 38 42 52 58 60 56 54 61 52 30 329 78 68 48 52 37 34 62 72 77 86 93 95
57 40 38 44 51 52 54 56 48 48 46 44 51 47 38 41 40 35 42 35 33 36 50 50 51 59 36 75 68 356 20 49 55 54 48 19 8 35 71 70 70 85 98
81 48 33 35 41 54 51 44 41 37 40 39 46 44 39 38 40 32 31 33 26 21 42 48 46 30 17 31 21 19 19 31 42 54 48 12 355 1 30 55 71 91 106
66 35 29 34 36 46 51 47 41 41 39 36 31 30 29 28 24 24 17 11 5 355 2 4 351 15 11 22 23 28 27 17 15 32 43 13 349 342 345 329 316 158 159
66 38 25 21 32 41 57 47 41 40 40 36 27 19 18 22 16 10 1 4 2 350 349 349 342 0 13 18 17 23 20 16 4 347 47 26 357 341 337 314 275 232 199
37 43 37 27 19 33 60 52 45 44 42 37 31 21 19 10 2 352 355 353 358 348 339 326 334 333 350 359 13 13 2 5 356 348 352 38 19 355 338 334 316 269 227
29 37 44 36 22 23 45 67 57 52 47 35 25 22 21 12 356 340 344 347 350 341 330 320 338 316 326 337 4 355 357 357 350 351 344 348 11 16 5 349 335 325 290
35 45 41 40 37 25 23 48 63 53 44 33 22 18 16 7 359 342 336 342 341 334 322 311 329 306 300 302 307 323 329 339 348 344 354 359 350 339 4 3 340 330 320
44 53 52 42 45 35 26 38 55 54 37 23 19 16 7 1 355 352 338 335 327 321 318 315 323 305 292 304 301 302 322 323 336 340 8 7 357 343 331 350 340 336 331
57 58 52 51 41 42 41 42 59 51 34 27 21 14 6 358 353 348 343 333 326 320 322 320 304 307 305 308 297 294 308 311 322 347 1 6 1 356 345 335 319 338 335
57 54 48 44 41 45 26 2 5 358 14 20 17 16 7 358 350 342 343 341 328 322 314 313 301 286 326 333 291 281 256 237 298 337 0 347 357 5 360 346 334 331 327
66 59 58 48 44 37 14 3 348 344 359 5 4 9 2 353 349 341 339 332 330 313 305 302 305 272 321 326 286 271 262 215 206 278 320 328 326 340 2 353 341 341 333
71 39 23 40 47 35 27 43 58 52 357 349 347 353 353 347 346 344 336 328 322 312 296 295 292 274 247 246 294 283 264 257 304 222 234 279 306 312 327 336 331 336 333
87 42 34 33 44 37 35 38 64 358 326 326 325 329 339 343 342 341 335 332 323 308 301 296 291 280 252 237 250 275 291 305 269 264 207 216 295 310 318 315 316 316 315
130 72 49 50 43 33 30 29 13 334 323 324 327 322 329 336 336 339 334 328 324 309 297 294 286 284 257 245 243 260 258 262 259 259 258 258 267 283 295 291 295 302 305
138 94 67 70 50 34 28 20 353 329 329 322 324 319 321 323 325 334 329 323 316 312 305 293 280 275 263 254 245 242 248 244 240 252 260 266 271 276 280 274 282 292 296